RADIX (43550 NORAD) Tracking and Keplerian Element Data

This shows tracking and keplerian element data for the satellite.

Feedback or suggestion? Click here.




ElementValue
Catalog43550
NameRADIX
Epoch Orbit4410
Epoch Day111.84196801
Epoch Year2019
RAAN270.9324
Inclination51.6362
Eccentricity0.0004657
Argument of Perigee291.0989
Mean Anonmoly68.9507
Mean Motion15.63535516
Decay Rate0.00024918
L11 43550U 98067NY 19111.84196801 .00024918 00000-0 26838-3 0 9991
L22 43550 51.6362 270.9324 0004657 291.0989 68.9507 15.63535516 44103

Live tracking and technical data element details for RADIX (NORAD 43550). RADIX can be tracked NOW for your location showing map with azimuth and elevation plus other details from your city location.

Track the satellite on the map from your city or location and see movement details for azimuth, elevation, latitude, longitude, range, height, and movement on the map or in text.







IsCatalogInMostPopularTable: catalog: 43550, numindb: 136
Update: records affected: 1



GetName: 43550 RADIX

Hit Count: updated at: Tue, 23 Apr 2019 20:15:47 GMT